Regional Weather Roundup
Issued by NWS Charleston, WV

Home | Current Version | Previous Version | Graphics & Text | Print | Product List | Glossary On
Versions: 1 2 3 4 5 6 7 8 9 10 11 12 13 14 15 16 17 18 19 20 21 22 23 24 25 26 27
000
ASUS41 KRLX 220610
RWRRLX
West Virginia Regional Weather Roundup
National Weather Service Charleston WV
100 AM EST THU FEB 22 2018

Note: "fair" indicates few or no clouds below 12,000 feet with no
significant weather and/or obstructions to visibility.

WVZ003-220700-
Northern Panhandle of West Virginia

CITY           SKY/WX    TMP DP  RH WIND       PRES   REMARKS
WHEELING       CLOUDY    39  35  86 N7        30.51R
$$

WVZ009-220700-
Northwest West Virginia

CITY           SKY/WX    TMP DP  RH WIND       PRES   REMARKS
PARKERSBURG    LGT RAIN  43  41  93 NE7       30.47F FOG
$$

WVZ006-220700-
Western West Virginia

CITY           SKY/WX    TMP DP  RH WIND       PRES   REMARKS
HUNTINGTON     CLOUDY    48  44  86 NE9       30.39F
$$

WVZ015-220700-
West Central West Virginia

CITY           SKY/WX    TMP DP  RH WIND       PRES   REMARKS
CHARLESTON     DRIZZLE   51  50  96 NE8       30.39F
$$

WVZ022-031-220700-
North Central West Virginia

CITY           SKY/WX    TMP DP  RH WIND       PRES   REMARKS
CLARKSBURG     CLOUDY    46  43  89 NE8       30.44F
MORGANTOWN     CLOUDY    44  41  89 N8        30.47F
$$

WVZ025-035-042-045-220700-
Southern West Virginia

CITY           SKY/WX    TMP DP  RH WIND       PRES   REMARKS
BECKLEY        FOG       57  57 100 E3        30.39S VSB 1/4
LOGAN          CLOUDY    57  57 100 NE3       30.36F
BLUEFIELD      FAIR      61  53  75 VRB3      30.40F
LEWISBURG      FOG       53  52  99 CALM      30.41S VSB 1/2
$$

WVZ047-220700-
Northern Mountains of West Virginia

CITY           SKY/WX    TMP DP  RH WIND       PRES   REMARKS
ELKINS         CLOUDY    54  52  93 CALM      30.41R
$$

WVZ052-220700-
Eastern Panhandle of West Virginia

CITY           SKY/WX    TMP DP  RH WIND       PRES   REMARKS
MARTINSBURG    CLOUDY    60  53  77 N12       30.41R
PETERSBURG     CLOUDY    58  55  88 CALM      30.42R
$$




USA.gov is the U.S. government's official web portal to all federal, state and local government web resources and services.